This is the latest recevied weather packets stored in our database for station/object IU1VDW-13. If no packets are shown the sender has not sent any weather packets the latest 10 day(s).
| Time | Temp. | Humidity | Pressure | Rain* | Wind** | Luminosity | Snow |
|---|---|---|---|---|---|---|---|
| 1776998803 | 20° C | 58% | 1019 hPa | - | - | - | - |
| 1776996405 | 20° C | 58% | 1019.1 hPa | - | - | - | - |
| 1776994008 | 20° C | 58% | 1019.1 hPa | - | - | - | - |
| 1776991611 | 20° C | 57% | 1019.2 hPa | - | - | - | - |
| 1776989213 | 19.44° C | 57% | 1019.3 hPa | - | - | - | - |
| 1776986815 | 19.44° C | 56% | 1019.7 hPa | - | - | - | - |
| 1776984419 | 19.44° C | 54% | 1019.7 hPa | - | - | - | - |
| 1776982021 | 19.44° C | 51% | 1019.7 hPa | - | - | - | - |
| 1776979624 | 18.89° C | 49% | 1019.6 hPa | - | - | - | - |
| 1776977226 | 19.44° C | 49% | 1019.6 hPa | - | - | - | - |
| 1776974829 | 19.44° C | 48% | 1019.3 hPa | - | - | - | - |
| 1776972432 | 20° C | 49% | 1018.9 hPa | - | - | - | - |
| 1776970034 | 20.56° C | 49% | 1018.8 hPa | - | - | - | - |
| 1776967638 | 20.56° C | 49% | 1018.8 hPa | - | - | - | - |
| 1776965241 | 20.56° C | 48% | 1018.9 hPa | - | - | - | - |
| 1776962843 | 20.56° C | 48% | 1019.2 hPa | - | - | - | - |
| 1776960446 | 20.56° C | 49% | 1019.6 hPa | - | - | - | - |
| 1776958048 | 20.56° C | 52% | 1020.1 hPa | - | - | - | - |
| 1776955651 | 20.56° C | 53% | 1020.7 hPa | - | - | - | - |
| 1776953254 | 20.56° C | 55% | 1021.3 hPa | - | - | - | - |
| 1776950857 | 20.56° C | 56% | 1022 hPa | - | - | - | - |
| 1776948460 | 20.56° C | 57% | 1022.6 hPa | - | - | - | - |
| 1776946063 | 20.56° C | 57% | 1023.1 hPa | - | - | - | - |
| 1776943666 | 20.56° C | 57% | 1023.7 hPa | - | - | - | - |
| 1776941269 | 20.56° C | 57% | 1024.3 hPa | - | - | - | - |
* Rain since midnight (hover to see other rain measurements)
** Current wind speed in m/s (hover to see current wind gust speed)